User: anonymous   Login
Location: Ammerl�gen
(47.2167°N, 9.6000°E)
Time: 19:50:10
(UTC+00:00)
Language:

BEESAT 2 - Orbit

View from above orbital plane
View from above orbital plane
View from above satellite
View from above satellite

Ground track
Ground track

The orbit data is extracted from the following two-line orbital elements,

1 39136U 13015G   21339.47408713  .00003016  00000-0  14978-3 0  9996
2 39136  64.8769  15.0967 0013767 248.5023 111.4637 15.19650804476896
Epoch (UTC): 05 December 2021 11:22:41
Eccentricity: 0.0013767
inclination: 64.8769°
perigee height: 497 km
apogee height: 516 km
right ascension of ascending node: 15.0967°
argument of perigee: 248.5023°
revolutions per day: 15.19650804
mean anomaly at epoch: 111.4637°
orbit number at epoch: 47689

The dashed part of the orbit path shows where the satellite is in the earth's shadow,  

DLR